Location: Bishopstone
(51.0167°N, 1.9000°W)
Time: 11:14:10
(UTC+00:00)

Cosmos 1850 Rocket - Pass Details

Date: 16 September 2019
Orbit: 755 x 785 km, 74.0° (Epoch: 19 October)

Event Time Altitude Azimuth Distance (km) Brightness Sun altitude
Rises 20:46:13 0° 337° (NNW) 3,227 8.2 -22.2°
Reaches altitude 10° 20:48:40 10° 343° (NNW) 2,295 7.2 -22.5°
Maximum altitude 20:53:44 50° 59° (ENE) 963 4.3 -23.2°
Enters shadow 20:54:09 49° 76° (ENE) 979 4.2 -23.2°
